Daviess Cnty AP, Washington,, IN

7:07 AM EDT on September 22, 2019 (GMT -0400)
Daviess County

Weather History for KDCY - May, 2019

Change the Weather History Date:

Tuesday, May 28, 2019

  Actual Average (KLWV) Record (KLWV)
Temperature  
Mean Temperature 80 °F -  
Max Temperature 88 °F 74 °F 97 °F (2018)
Min Temperature 72 °F 55 °F 42 °F (1992)
Cooling Degree Days 15    
Growing Degree Days 30 (Base 50)    
Moisture  
Dew Point 66 °F    
Average Humidity 64    
Maximum Humidity 76    
Minimum Humidity 47    
Precipitation  
Precipitation 0.00 in - - ()
Sea Level Pressure  
Sea Level Pressure 29.79 in    
Wind  
Wind Speed 11 mph (SW)    
Max Wind Speed 18 mph    
Max Gust Speed 28 mph    
Visibility 10 miles    
Events      
Averages and records for this station are not official NWS values.
T = Trace of Precipitation, MM = Missing Value Source: NWS Daily Summary

Daily Weather History Graph

Daily Weather History Graph

Search for Another Location

Airport or City:

Astronomy

May. 28, 2019 Rise Set
Actual Time 6:27 AM EDT 9:04 PM EDT
Civil Twilight 5:56 AM EDT 9:35 PM EDT
Nautical Twilight 5:18 AM EDT 10:14 PM EDT
Astronomical Twilight 4:34 AM EDT 10:57 PM EDT
Moon 3:34 AM EDT (5/28) 3:18 PM EDT (5/28)
Length of Visible Light 15h 38m
Length of Day
14h 36m
Waning Crescent, 32% of the Moon is Illuminated
May 28
Waning Crescent
Jun 3
New
Jun 10
First Quarter
Jun 17
Full
Jun 25
Last Quarter

Hourly Weather History & Observations

Time (EDT) Temp. Heat Index Dew Point Humidity Pressure Visibility Wind Dir Wind Speed Gust Speed Precip Events Conditions
12:15 AM 76.1 °F - 67.1 °F 74% 29.82 in 10.0 mi South 9.2 mph - N/A   Clear
12:35 AM 75.9 °F - 67.1 °F 74% 29.81 in 10.0 mi SSW 8.1 mph - N/A   Clear
12:55 AM 75.7 °F - 67.1 °F 74% 29.81 in 10.0 mi SSW 9.2 mph - N/A   Clear
1:15 AM 75.9 °F - 67.1 °F 74% 29.80 in 10.0 mi SSW 11.5 mph - N/A   Clear
1:35 AM 76.1 °F - 67.1 °F 74% 29.80 in 10.0 mi SSW 10.4 mph - N/A   Clear
1:55 AM 76.1 °F - 66.9 °F 73% 29.80 in 10.0 mi SSW 9.2 mph - N/A   Clear
2:15 AM 76.1 °F - 66.6 °F 72% 29.80 in 10.0 mi SSW 10.4 mph - N/A   Clear
2:35 AM 75.4 °F - 66.4 °F 73% 29.80 in 10.0 mi SSW 10.4 mph - N/A   Clear
2:55 AM 75.2 °F - 66.4 °F 74% 29.80 in 10.0 mi SSW 9.2 mph - N/A   Clear
3:15 AM 75.0 °F - 66.2 °F 74% 29.79 in 10.0 mi SSW 10.4 mph - N/A   Clear
3:35 AM 74.5 °F - 65.8 °F 74% 29.79 in 10.0 mi SSW 10.4 mph - N/A   Clear
3:55 AM 74.5 °F - 65.5 °F 73% 29.79 in 10.0 mi SSW 12.7 mph 16.1 mph N/A   Clear
4:15 AM 74.5 °F - 65.3 °F 73% 29.78 in 10.0 mi SSW 11.5 mph - N/A   Clear
4:35 AM 74.7 °F - 65.1 °F 72% 29.79 in 10.0 mi SW 10.4 mph 16.1 mph N/A   Clear
4:55 AM 74.1 °F - 65.1 °F 73% 29.81 in 10.0 mi SW 8.1 mph - N/A   Clear
5:15 AM 73.9 °F - 64.9 °F 73% 29.81 in 10.0 mi SW 11.5 mph - N/A   Clear
5:35 AM 73.4 °F - 64.8 °F 74% 29.81 in 10.0 mi SW 9.2 mph - N/A   Clear
5:55 AM 73.4 °F - 64.8 °F 74% 29.82 in 10.0 mi SSW 10.4 mph - N/A   Clear
6:15 AM 72.9 °F - 64.6 °F 75% 29.82 in 10.0 mi SSW 11.5 mph - N/A   Clear
6:35 AM 72.7 °F - 64.6 °F 76% 29.82 in 10.0 mi SSW 11.5 mph - N/A   Clear
6:55 AM 72.7 °F - 64.6 °F 76% 29.82 in 10.0 mi SSW 12.7 mph - N/A   Clear
7:15 AM 72.9 °F - 64.6 °F 75% 29.82 in 10.0 mi SSW 13.8 mph 18.4 mph N/A   Clear
7:35 AM 73.4 °F - 64.8 °F 74% 29.82 in 10.0 mi SSW 11.5 mph 18.4 mph N/A   Clear
7:55 AM 74.3 °F - 65.3 °F 73% 29.82 in 10.0 mi SW 10.4 mph - N/A   Clear
8:15 AM 74.7 °F - 65.5 °F 73% 29.82 in 10.0 mi SSW 12.7 mph - N/A   Clear
8:35 AM 75.4 °F - 65.7 °F 72% 29.82 in 10.0 mi SSW 10.4 mph 17.3 mph N/A   Clear
8:55 AM 76.3 °F - 66.2 °F 71% 29.83 in 10.0 mi SW 15.0 mph 18.4 mph N/A   Clear
9:15 AM 77.0 °F - 66.4 °F 70% 29.83 in 10.0 mi SW 11.5 mph 19.6 mph N/A   Clear
9:35 AM 77.9 °F - 66.7 °F 68% 29.82 in 10.0 mi SW 13.8 mph 20.7 mph N/A   Clear
9:55 AM 78.8 °F - 67.3 °F 68% 29.83 in 10.0 mi SW 10.4 mph 18.4 mph N/A   Clear
10:15 AM 79.5 °F - 67.6 °F 67% 29.82 in 10.0 mi SW 13.8 mph 17.3 mph N/A   Clear
10:35 AM 80.1 °F 82.6 °F 67.6 °F 66% 29.83 in 10.0 mi WSW 9.2 mph - N/A   Clear
10:55 AM 81.1 °F 83.9 °F 68.0 °F 64% 29.82 in 10.0 mi SW 11.5 mph - N/A   Clear
11:15 AM 82.4 °F 85.4 °F 68.2 °F 62% 29.83 in 10.0 mi WSW 10.4 mph 18.4 mph N/A   Clear
11:35 AM 81.7 °F 84.0 °F 66.6 °F 60% 29.83 in 10.0 mi WSW 18.4 mph 23.0 mph N/A   Scattered Clouds
11:55 AM 81.9 °F 84.2 °F 66.9 °F 60% 29.83 in 10.0 mi WSW 12.7 mph 21.9 mph N/A   Scattered Clouds
12:15 PM 82.6 °F 85.3 °F 67.3 °F 60% 29.83 in 10.0 mi SW 15.0 mph 20.7 mph N/A   Scattered Clouds
12:35 PM 83.8 °F 86.5 °F 66.9 °F 57% 29.83 in 10.0 mi SW 15.0 mph 21.9 mph N/A   Clear
12:55 PM 83.7 °F 86.0 °F 66.4 °F 56% 29.82 in 10.0 mi SW 17.3 mph 21.9 mph N/A   Scattered Clouds
1:15 PM 84.2 °F 86.8 °F 66.9 °F 56% 29.82 in 10.0 mi SW 15.0 mph 23.0 mph N/A   Scattered Clouds
1:35 PM 85.1 °F 87.7 °F 66.6 °F 54% 29.81 in 10.0 mi SW 17.3 mph 21.9 mph N/A   Scattered Clouds
1:55 PM 85.8 °F 88.5 °F 66.9 °F 53% 29.80 in 10.0 mi WSW 15.0 mph 19.6 mph N/A   Scattered Clouds
2:15 PM 86.0 °F 87.6 °F 64.9 °F 49% 29.80 in 10.0 mi SW 13.8 mph 27.6 mph N/A   Scattered Clouds
2:35 PM 85.5 °F 87.4 °F 65.7 °F 51% 29.80 in 10.0 mi SW 11.5 mph 20.7 mph N/A   Scattered Clouds
2:55 PM 87.1 °F 89.2 °F 65.8 °F 49% 29.80 in 10.0 mi SSW 17.3 mph 21.9 mph N/A   Scattered Clouds
3:15 PM 84.7 °F 86.6 °F 65.3 °F 52% 29.80 in 10.0 mi WSW 10.4 mph - N/A   Mostly Cloudy
3:35 PM 87.4 °F 89.8 °F 66.4 °F 49% 29.80 in 10.0 mi WSW 11.5 mph 19.6 mph N/A   Mostly Cloudy
3:55 PM 87.6 °F 90.1 °F 66.2 °F 49% 29.80 in 10.0 mi SW 9.2 mph 16.1 mph N/A   Scattered Clouds
4:15 PM 87.8 °F 90.0 °F 65.7 °F 48% 29.79 in 10.0 mi WSW 10.4 mph 18.4 mph N/A   Clear
4:35 PM 88.0 °F 90.0 °F 65.3 °F 47% 29.78 in 10.0 mi WSW 12.7 mph 19.6 mph N/A   Scattered Clouds
4:55 PM 87.1 °F 89.5 °F 66.2 °F 50% 29.79 in 10.0 mi SW 10.4 mph 17.3 mph N/A   Scattered Clouds
5:15 PM 87.6 °F 90.4 °F 66.9 °F 50% 29.77 in 10.0 mi SSW 13.8 mph 17.3 mph N/A   Scattered Clouds
5:35 PM 87.1 °F 89.5 °F 66.4 °F 50% 29.77 in 10.0 mi WSW 15.0 mph 20.7 mph N/A   Clear
5:55 PM 87.1 °F 89.9 °F 66.7 °F 51% 29.77 in 10.0 mi SW 12.7 mph - N/A   Scattered Clouds
6:15 PM 85.6 °F 87.9 °F 66.4 °F 52% 29.77 in 10.0 mi SW 15.0 mph 20.7 mph N/A   Mostly Cloudy
6:35 PM 86.5 °F 89.3 °F 67.3 °F 52% 29.76 in 10.0 mi WSW 12.7 mph - N/A   Mostly Cloudy
6:55 PM 84.6 °F 87.1 °F 66.9 °F 55% 29.76 in 10.0 mi WSW 9.2 mph - N/A   Clear
7:15 PM 85.1 °F 87.7 °F 66.9 °F 54% 29.75 in 10.0 mi SW 10.4 mph - N/A   Clear
7:35 PM 85.1 °F 87.4 °F 66.0 °F 53% 29.74 in 10.0 mi SSW 10.4 mph 17.3 mph N/A   Scattered Clouds
7:55 PM 84.2 °F 86.3 °F 65.8 °F 54% 29.74 in 10.0 mi SW 9.2 mph - N/A   Clear
8:15 PM 83.3 °F 85.3 °F 65.8 °F 55% 29.74 in 10.0 mi SSW 9.2 mph - N/A   Clear
8:35 PM 82.0 °F 83.9 °F 65.7 °F 57% 29.74 in 10.0 mi SSW 8.1 mph - N/A   Clear
8:55 PM 80.8 °F 82.8 °F 65.8 °F 60% 29.74 in 10.0 mi SSW 6.9 mph - N/A   Clear
9:15 PM 79.9 °F - 65.1 °F 61% 29.75 in 10.0 mi SSW 5.8 mph - N/A   Clear
9:35 PM 77.0 °F - 66.2 °F 69% 29.74 in 10.0 mi South 5.8 mph - N/A   Clear
9:55 PM 76.6 °F - 65.7 °F 69% 29.75 in 10.0 mi South 8.1 mph - N/A   Clear
10:15 PM 76.6 °F - 65.3 °F 68% 29.75 in 10.0 mi South 9.2 mph - N/A   Clear
10:35 PM 76.3 °F - 65.3 °F 69% 29.74 in 10.0 mi South 8.1 mph - N/A   Clear
10:55 PM 76.3 °F - 65.3 °F 69% 29.74 in 10.0 mi South 8.1 mph - N/A   Clear
11:15 PM 77.7 °F - 64.9 °F 65% 29.76 in 10.0 mi SSW 9.2 mph - N/A   Clear
11:35 PM 78.3 °F - 65.3 °F 64% 29.77 in 10.0 mi SSW 8.1 mph - N/A   Clear
11:55 PM 78.3 °F - 65.3 °F 64% 29.77 in 10.0 mi SSW 8.1 mph - N/A   Scattered Clouds